Tracking 29892 objects as of 21-Nov-2024
HD Live streaming from Space Station
objects crossing your sky now

FALCON 9 R/B

Track FALCON 9 R/B now!
10-day predictions


NORAD ID: 43563
Int'l Code: 2018-059B
Perigee: 210.1 km
Apogee: 11,303.0 km
Inclination: 27.0 °
Period: 221.5 minutes
Semi major axis: 12127 km
RCS: Unknown
Launch date: July 22, 2018
Source: United States (US)
Launch site: AIR FORCE EASTERN TEST RANGE (AFETR)

Note: This is a ROCKET BODY
Your satellite tracking list
Your tracking list is empty




NASA's NSSDC Master Catalog

Two Line Element Set (TLE):
1 43563U 18059B   24325.04573539  .00084857  00000-0  13851-2 0  9998
2 43563  27.0255 298.9501 4573454 280.1733  32.8936  6.50045102117658
Source of the keplerian elements: AFSPC